When you browse on this site, cookies collect data to enhance your experience and personalize the content and advertising you see.
Visit our Privacy Policy to learn more. By continuing to use the site, you agree to this use of cookies and data.
  • In United Kingdom
  • List of Countries
  • For 7 days
  • Water Temperature
  • Weather Map
  • Weather Widgets
  • user-avatar
    Login

    Hourly Weather Fagaras

    Today, 19 September, Thursday

    Time Temperature Precipitation Wind Pressure Humidity
    00:00 +8°C° 0 mm 1 mps 726 mmHg 58%
    01:00 +8°C° 0 mm 1 mps 727 mmHg 59%
    02:00 +8°C° 0 mm 1 mps 727 mmHg 60%
    03:00 +6°C° 0 mm 0 mps 727 mmHg 62%
    04:00 +6°C° 0 mm 0 mps 727 mmHg 64%
    05:00 +5°C° 0 mm 0 mps 727 mmHg 66%
    06:00 +8°C° 0 mm 1 mps 727 mmHg 60%
    07:00 +10°C° 0 mm 1 mps 727 mmHg 54%
    08:00 +11°C° 0 mm 1 mps 727 mmHg 49%
    09:00 +14°C° 0 mm 1 mps 727 mmHg 43%
    10:00 +16°C° 0 mm 1 mps 727 mmHg 38%
    11:00 +19°C° 0 mm 1 mps 727 mmHg 33%
    12:00 +19°C° 0 mm 2 mps 726 mmHg 30%
    13:00 +19°C° 0 mm 3 mps 726 mmHg 27%
    14:00 +20°C° 0 mm 3 mps 726 mmHg 24%
    15:00 +20°C° 0 mm 4 mps 725 mmHg 25%
    16:00 +19°C° 0 mm 4 mps 725 mmHg 26%
    17:00 +18°C° 0 mm 4 mps 725 mmHg 26%
    18:00 +15°C° 0 mm 4 mps 725 mmHg 34%
    19:00 +13°C° 0 mm 3 mps 725 mmHg 42%
    20:00 +10°C° 0 mm 2 mps 725 mmHg 49%
    21:00 +9°C° 0 mm 2 mps 726 mmHg 53%
    22:00 +9°C° 0 mm 2 mps 726 mmHg 56%
    23:00 +8°C° 0 mm 2 mps 726 mmHg 60%

    Tomorrow, 20 September, Friday

    Time Temperature Precipitation Wind Pressure Humidity
    00:00 +8°C° 0 mm 2 mps 726 mmHg 61%
    01:00 +7°C° 0 mm 2 mps 726 mmHg 61%
    02:00 +7°C° 0 mm 2 mps 726 mmHg 62%
    03:00 +6°C° 0 mm 2 mps 726 mmHg 65%
    04:00 +6°C° 0 mm 2 mps 726 mmHg 68%
    05:00 +5°C° 0 mm 2 mps 726 mmHg 70%
    06:00 +7°C° 0 mm 2 mps 726 mmHg 65%
    07:00 +8°C° 0 mm 2 mps 727 mmHg 61%
    08:00 +9°C° 0 mm 3 mps 727 mmHg 56%
    09:00 +11°C° 0 mm 3 mps 727 mmHg 50%
    10:00 +12°C° 0 mm 4 mps 727 mmHg 44%
    11:00 +14°C° 0 mm 5 mps 727 mmHg 38%
    12:00 +14°C° 0 mm 5 mps 727 mmHg 35%
    13:00 +15°C° 0 mm 5 mps 727 mmHg 32%
    14:00 +16°C° 0 mm 6 mps 727 mmHg 28%
    15:00 +15°C° 0 mm 5 mps 727 mmHg 28%
    16:00 +15°C° 0 mm 5 mps 727 mmHg 27%
    17:00 +15°C° 0 mm 5 mps 727 mmHg 26%
    18:00 +12°C° 0 mm 4 mps 727 mmHg 33%
    19:00 +10°C° 0 mm 3 mps 728 mmHg 40%
    20:00 +8°C° 0 mm 2 mps 728 mmHg 46%
    21:00 +7°C° 0 mm 2 mps 728 mmHg 50%
    22:00 +6°C° 0 mm 2 mps 729 mmHg 54%
    23:00 +6°C° 0 mm 2 mps 729 mmHg 58%

    Day after tomorrow, 21 September, Saturday

    Time Temperature Precipitation Wind Pressure Humidity
    00:00 +5°C° 0 mm 2 mps 729 mmHg 61%
    01:00 +6°C° 0 mm 1 mps 729 mmHg 63%
    02:00 +5°C° 0 mm 1 mps 729 mmHg 66%
    03:00 +5°C° 0 mm 1 mps 729 mmHg 67%
    04:00 +5°C° 0 mm 1 mps 730 mmHg 68%
    05:00 +4°C° 0 mm 1 mps 730 mmHg 70%
    06:00 +6°C° 0 mm 1 mps 730 mmHg 63%
    07:00 +7°C° 0 mm 0 mps 730 mmHg 56%
    08:00 +9°C° 0 mm 0 mps 730 mmHg 49%
    09:00 +12°C° 0 mm 1 mps 730 mmHg 42%
    10:00 +14°C° 0 mm 1 mps 730 mmHg 36%
    11:00 +16°C° 0 mm 1 mps 731 mmHg 30%
    12:00 +18°C° 0 mm 1 mps 730 mmHg 28%
    13:00 +18°C° 0 mm 2 mps 730 mmHg 26%
    14:00 +19°C° 0 mm 2 mps 729 mmHg 24%
    15:00 +18°C° 0 mm 2 mps 729 mmHg 25%
    16:00 +18°C° 0 mm 2 mps 729 mmHg 26%
    17:00 +18°C° 0 mm 2 mps 728 mmHg 27%
    18:00 +15°C° 0 mm 1 mps 728 mmHg 33%
    19:00 +12°C° 0 mm 1 mps 728 mmHg 38%
    20:00 +10°C° 0 mm 1 mps 728 mmHg 44%
    21:00 +9°C° 0 mm 1 mps 728 mmHg 45%
    22:00 +9°C° 0 mm 1 mps 728 mmHg 46%
    23:00 +9°C° 0 mm 1 mps 728 mmHg 47%

    22 September, Sunday

    Time Temperature Precipitation Wind Pressure Humidity
    00:00 +8°C° 0 mm 1 mps 728 mmHg 48%
    01:00 +8°C° 0 mm 1 mps 728 mmHg 50%
    02:00 +8°C° 0 mm 1 mps 728 mmHg 51%
    03:00 +7°C° 0 mm 1 mps 727 mmHg 52%
    04:00 +7°C° 0 mm 1 mps 727 mmHg 53%
    05:00 +6°C° 0 mm 0 mps 727 mmHg 54%
    06:00 +9°C° 0 mm 1 mps 727 mmHg 49%
    07:00 +10°C° 0 mm 1 mps 727 mmHg 45%
    08:00 +12°C° 0 mm 1 mps 727 mmHg 40%
    09:00 +15°C° 0 mm 1 mps 727 mmHg 35%
    10:00 +19°C° 0 mm 1 mps 727 mmHg 30%
    11:00 +21°C° 0 mm 1 mps 727 mmHg 26%
    12:00 +23°C° 0 mm 1 mps 727 mmHg 24%
    13:00 +24°C° 0 mm 1 mps 726 mmHg 23%
    14:00 +25°C° 0 mm 1 mps 726 mmHg 21%
    15:00 +25°C° 0 mm 1 mps 725 mmHg 23%
    16:00 +24°C° 0 mm 1 mps 725 mmHg 25%
    17:00 +23°C° 0 mm 1 mps 725 mmHg 27%
    18:00 +21°C° 0 mm 1 mps 725 mmHg 33%
    19:00 +18°C° 0 mm 1 mps 725 mmHg 38%
    20:00 +14°C° 0 mm 1 mps 724 mmHg 43%
    21:00 +13°C° 0 mm 1 mps 724 mmHg 44%
    22:00 +13°C° 0 mm 1 mps 724 mmHg 45%
    23:00 +12°C° 0 mm 1 mps 724 mmHg 46%

    23 September, Monday

    Time Temperature Precipitation Wind Pressure Humidity
    00:00 +12°C° 0 mm 1 mps 724 mmHg 46%
    01:00 +11°C° 0 mm 1 mps 724 mmHg 47%
    02:00 +11°C° 0 mm 1 mps 724 mmHg 47%
    03:00 +11°C° 0 mm 1 mps 723 mmHg 47%
    04:00 +11°C° 0 mm 1 mps 723 mmHg 47%
    05:00 +11°C° 0 mm 1 mps 723 mmHg 46%
    06:00 +13°C° 0 mm 1 mps 723 mmHg 43%
    07:00 +14°C° 0 mm 1 mps 723 mmHg 40%
    08:00 +15°C° 0 mm 1 mps 723 mmHg 37%
    09:00 +18°C° 0 mm 1 mps 723 mmHg 34%
    10:00 +20°C° 0 mm 1 mps 723 mmHg 30%
    11:00 +21°C° 0 mm 2 mps 723 mmHg 27%
    12:00 +20°C° 0 mm 2 mps 722 mmHg 33%
    13:00 +20°C° 0 mm 1 mps 722 mmHg 38%
    14:00 +19°C° 0 mm 1 mps 721 mmHg 44%
    15:00 +16°C° 0.2 mm 1 mps 721 mmHg 54%
    16:00 +15°C° 0.2 mm 1 mps 720 mmHg 63%
    17:00 +13°C° 0.2 mm 0 mps 720 mmHg 73%
    18:00 +13°C° 0 mm 0 mps 720 mmHg 75%
    19:00 +14°C° 0 mm 1 mps 719 mmHg 77%
    20:00 +14°C° 0 mm 1 mps 719 mmHg 79%
    21:00 +12°C° 0 mm 0 mps 719 mmHg 81%
    22:00 +12°C° 0 mm 0 mps 719 mmHg 84%
    23:00 +11°C° 0 mm 0 mps 718 mmHg 86%

    24 September, Tuesday

    Time Temperature Precipitation Wind Pressure Humidity
    00:00 +11°C° 0.1 mm 0 mps 718 mmHg 87%
    01:00 +12°C° 0.1 mm 1 mps 718 mmHg 88%
    02:00 +12°C° 0.1 mm 1 mps 718 mmHg 89%
    03:00 +13°C° 0.2 mm 1 mps 718 mmHg 90%
    04:00 +13°C° 0.2 mm 1 mps 718 mmHg 91%
    05:00 +13°C° 0.2 mm 1 mps 718 mmHg 92%
    06:00 +14°C° 0.1 mm 2 mps 718 mmHg 91%
    07:00 +14°C° 0.1 mm 2 mps 718 mmHg 90%
    08:00 +14°C° 0.1 mm 3 mps 718 mmHg 89%
    09:00 +14°C° 0.5 mm 3 mps 718 mmHg 89%
    10:00 +14°C° 0.5 mm 3 mps 718 mmHg 89%
    11:00 +14°C° 0.5 mm 3 mps 718 mmHg 89%
    12:00 +15°C° 0.2 mm 4 mps 718 mmHg 83%
    13:00 +16°C° 0.2 mm 5 mps 718 mmHg 76%
    14:00 +16°C° 0.2 mm 5 mps 718 mmHg 70%
    15:00 +17°C° 0.2 mm 4 mps 718 mmHg 74%
    16:00 +15°C° 0.2 mm 4 mps 718 mmHg 79%
    17:00 +14°C° 0.2 mm 3 mps 718 mmHg 83%
    18:00 +14°C° 0.5 mm 2 mps 719 mmHg 86%
    19:00 +13°C° 0.5 mm 2 mps 719 mmHg 90%
    20:00 +13°C° 0.5 mm 2 mps 720 mmHg 93%
    21:00 +12°C° 0.2 mm 2 mps 720 mmHg 91%
    22:00 +11°C° 0.2 mm 1 mps 720 mmHg 90%
    23:00 +11°C° 0.2 mm 1 mps 720 mmHg 88%
    Show more